Starlink 32273

operational
NORAD ID: 61956 Int'l Des: 2024-209 Owner: SPXS Country: US Constellation: starlink
LEOCIRCULAR

关于 Starlink 32273

正在加载描述...

实时位置

正在加载3D地球...

即将过境

高度历史

Altitude vs Time

uPlot chart will show altitude changes over time

两行轨道根数

1 61956U 24209T 25304.59312830 .00029764 00000-0 10147-2 0 9992
2 61956 53.1599 21.8992 0001137 133.6909 226.4186 15.30147648 55137
Epoch: Oct 31, 2025 • Age: 22 hours

当前状态

高度 476.1 km
速度 7.63 km/s
星下点 5.27°N, 157.4°E
发射日期 Nov 14, 2024
运行时间 0.9 years
类型 internet

技术详情

分类 Payload
质量 730.00 kg
干质量 700.00 kg
总质量 730.00 kg
长度 0.30 m
直径 4.10 m
跨度 29.00 m
形状 Box + pan
制造商 SPXS
平台类型 Starlink V2M
阶段状态 In Orbit
所有者/国家 SPXS/US

大型星座

Loading constellations...